Flag Weather past 2 weeks in Tashkent, Uzbekistan

Now
30 °F

Ice fog.


Feels Like: 27 °F
Forecast: 24 / 37 °F
Wind: 3 mph from Southwest

Location: Tashkent

Current Time: Nov 27, 2014 at 8:00:39 AM

Latest Report: Nov 27, 2014 at 7:00 AM


Visibility: 2 mi

Pressure: 30.15 "Hg

Humidity: 86%

Dew point: 27 °F

Location of TashkentLocation

Historic Weather in Tashkent — Graph

°F

Tashkent temperature yesterday

Maximum temperature yesterday: 41 °F (at 1:00 PM)
Minimum temperature yesterday: 30 °F (at 12:00 AM)
Average temperature yesterday: 35 °F

Past Weeks' High & Low Weather Summary

 TemperatureHumidityPressure
High68 °F (Nov 17, 3:30 PM)100% (Nov 14, 7:30 AM)30.51 "Hg (Nov 14, 7:30 AM)
Low30 °F (Nov 25, 6:30 PM)23% (Nov 17, 3:30 PM)29.77 "Hg (Nov 23, 10:30 PM)
Average43 °F74%30.27 "Hg
* Reported Nov 12 6:00 AM — Nov 27 6:30 AM, Tashkent, Weather by CustomWeather, © 2014

Note: Actual official high and low records may vary slightly from our data, if they occured in-between our weather recording intervals... More about our weather records

Advertising

Tashkent weather history for previous 24 hours

 ConditionsComfort  
Time TempWeatherWind HumidityBarometerVisibility
6:30 AM
Nov 27
30 °FIce fog.6 mph86%30.15 "Hg2 mi
6:00 AM30 °FIce fog.5 mph86%30.12 "Hg2 mi
5:30 AM30 °FIce fog.5 mph80%30.12 "Hg2 mi
5:00 AM30 °FIce fog.6 mph80%30.12 "Hg2 mi
4:30 AM30 °FIce fog.6 mph86%30.12 "Hg2 mi
4:00 AM30 °FIce fog.9 mph80%30.12 "Hg2 mi
3:30 AM30 °FIce fog.9 mph86%30.12 "Hg2 mi
3:00 AM30 °FIce fog.7 mph86%30.12 "Hg2 mi
2:00 AM32 °FIce fog.5 mph87%30.09 "Hg2 mi
1:30 AM32 °FIce fog.7 mph87%30.07 "Hg2 mi
1:00 AM32 °FIce fog.8 mph93%30.07 "Hg2 mi
12:30 AM34 °FFog.7 mph87%30.07 "Hg2 mi
12:00 AM36 °FFog.5 mph81%30.04 "Hg2 mi
11:30 PM
Nov 26
36 °FFog.3 mph81%30.04 "Hg2 mi
11:00 PM36 °FFog.2 mph75%30.07 "Hg2 mi
10:30 PM36 °FClear.3 mph75%30.07 "Hg10 mi
10:00 PM36 °FClear.3 mph75%30.07 "Hg10 mi
9:30 PM36 °FClear.3 mph75%30.07 "Hg10 mi
9:00 PM36 °FClear.2 mph75%30.04 "Hg10 mi
8:30 PM36 °FClear.3 mph75%30.04 "Hg10 mi
8:00 PM36 °FClear.3 mph70%30.04 "Hg10 mi
7:30 PM36 °FClear.2 mph75%30.07 "Hg10 mi
7:00 PM36 °FClear.3 mph75%30.07 "Hg10 mi
6:30 PM36 °FPassing clouds.2 mph75%30.07 "HgN/A
6:00 PM37 °FPassing clouds.3 mph70%30.09 "HgN/A
5:30 PM37 °FClear.6 mph70%30.09 "Hg10 mi
5:00 PM37 °FClear.5 mph70%30.12 "Hg10 mi
4:30 PM37 °FSunny.5 mph65%30.12 "Hg10 mi
4:00 PM39 °FSunny.5 mph61%30.12 "Hg10 mi
3:30 PM39 °FSunny.8 mph61%30.12 "Hg10 mi
3:00 PM39 °FSunny.8 mph61%30.15 "Hg10 mi
2:00 PM41 °FPassing clouds.3 mph49%30.15 "HgN/A
1:30 PM41 °FPassing clouds.6 mph49%30.15 "HgN/A
1:00 PM41 °FPassing clouds.5 mph49%30.18 "HgN/A
12:30 PM39 °FSunny.3 mph52%30.18 "Hg10 mi
12:00 PM37 °FPassing clouds.5 mph56%30.21 "HgN/A
11:30 AM37 °FPassing clouds.3 mph60%30.24 "HgN/A
11:00 AM36 °FPassing clouds.3 mph65%30.24 "HgN/A
10:30 AM34 °FPassing clouds.3 mph70%30.27 "HgN/A
10:00 AM32 °FPassing clouds.5 mph75%30.27 "HgN/A
9:30 AM32 °FClear.5 mph69%30.30 "Hg4 mi
9:00 AM30 °FClear.6 mph75%30.30 "Hg4 mi
8:00 AM30 °FIce fog.6 mph80%30.30 "Hg3 mi
Weather by CustomWeather, © 2014

See weather overviewHow to use our weather pages